[[{"header":{"parameterUnit":"m.s-1","parameterCategory":1,"la1":30.2991,"la2":30.254,"lo1":-89.0895,"lo2":-89.0444,"dy":0.0017,"dx":0.0017,"nx":28,"ny":28,"refTime":"2025-01-13T09:00:00:Z","depth":0,"parameterNumber":2,"parameterNumberName":"U-component_of_WINDS"},"data":[0,0,0,0,0,0,0,0,0,0,0,0,0,0,0,0,0,0,0,0,0,0,0,0,0,0,0,0,0,0,0,0,0,0,0,0,0,0,0,0,0,0,0,0,0,0,0,0,0,0,0,0,0,0,0,0,0,0,-2.741,-2.741,0,-2.7449,-2.7449,-2.745,-2.7335,-2.7331,-2.7328,-2.7325,-2.7369,-2.7374,-2.7378,0,0,0,0,0,0,0,0,0,0,0,0,0,-2.7238,-2.7242,-2.741,-2.741,-2.7411,-2.7449,-2.7449,-2.745,-2.7336,-2.7331,-2.7327,-2.7323,-2.7368,-2.7373,-2.7378,0,0,0,0,0,0,0,0,0,0,0,0,0,-2.7299,-2.7243,-2.741,-2.7358,-2.7354,-2.7449,-2.7449,-2.745,-2.7337,-2.7331,-2.7326,-2.7321,-2.7366,-2.7373,-2.7379,-2.7527,0,0,-2.74,-2.7403,0,0,0,0,0,0,0,0,-2.7296,-2.7305,-2.7365,-2.7362,-2.7357,-2.7381,-2.7405,-2.7476,-2.7338,-2.7343,-2.7324,-2.7318,-2.7378,-2.7383,-2.7402,-2.7529,-2.7531,-2.74,-2.7404,-2.7407,-2.7409,0,0,0,0,0,0,0,-2.7292,-2.7303,-2.7425,-2.7366,-2.7361,-2.7334,-2.7337,-2.7418,-2.739,-2.7342,-2.7334,-2.734,-2.7375,-2.7396,-2.7403,-2.7532,-2.74,-2.7406,-2.741,-2.7413,-2.7782,-2.7787,0,0,0,0,0,0,-2.7294,-2.73,-2.7424,-2.7426,-2.7313,-2.7341,-2.7344,-2.7379,-2.7389,-2.7385,-2.7345,-2.7335,-2.7387,-2.7395,-2.7404,-2.7579,-2.7407,-2.7414,-2.7417,-2.7776,-2.7783,-2.7789,0,0,0,0,0,0,-2.729,-2.7306,-2.7422,-2.7361,-2.7374,-2.735,-2.739,-2.7383,-2.7404,-2.739,-2.7385,-2.7372,-2.7384,-2.7394,-2.7497,-2.7578,-2.7417,-2.7423,-2.7769,-2.7778,-2.7786,-2.7929,0,0,0,0,0,0,-2.7286,-2.7305,-2.7361,-2.7363,-2.7378,-2.7515,-2.7395,-2.7387,-2.7416,-2.7403,-2.7414,-2.7411,-2.738,-2.7488,-2.7504,-2.7585,-2.7428,-2.7762,-2.7773,-2.7783,-2.7917,-2.7941,-2.7962,0,0,0,0,0,-2.728,-2.74,-2.7364,-2.738,-2.7446,-2.752,-2.7528,-2.7489,-2.7423,-2.7479,-2.747,-2.7411,-2.7566,-2.7499,-2.7516,-2.7601,-2.7757,-2.777,-2.7783,-2.7907,-2.7937,-2.7962,0,0,0,0,0,0,-2.741,-2.74,-2.736,-2.7484,-2.7503,-2.75,-2.757,-2.7521,-2.7561,-2.7548,-2.7498,-2.7502,-2.7614,-2.7617,-2.7542,-2.7744,-2.765,-2.7667,-2.7739,-2.7767,-2.7789,-2.7788,-2.7434,0,0,0,0,0,-2.7453,-2.7512,-2.75,-2.7611,-2.7623,-2.7595,-2.7625,-2.7593,-2.7612,-2.762,-2.7618,-2.764,-2.7693,-2.773,-2.7778,-2.7915,-2.7917,-2.7982,-2.8004,-2.8023,-2.804,-2.8113,-2.8142,-2.7832,-2.7832,-2.7831,0,0,-2.7543,-2.7544,-2.7585,-2.7637,-2.7648,-2.7712,-2.7603,-2.7675,-2.7722,-2.7631,-2.7728,-2.7727,-2.7748,-2.7869,-2.7922,-2.7875,-2.8125,-2.804,-2.8055,-2.8061,-2.813,-2.8159,-2.8185,-2.7841,-2.7839,-2.7838,0,0,-2.7739,-2.7746,-2.7839,-2.7852,-2.787,-2.785,-2.7872,-2.7876,-2.7872,-2.7968,-2.7901,-2.7956,-2.8049,-2.8067,-2.8088,-2.8289,-2.8237,-2.8306,-2.8426,-2.8498,-2.8523,-2.8544,-2.8618,-2.8645,-2.8321,-2.8322,-2.8322,0,-2.785,-2.7942,-2.7894,-2.797,-2.7996,-2.7913,-2.8008,-2.8023,-2.8057,-2.8077,-2.8022,-2.8137,-2.8145,-2.8269,-2.8318,-2.8337,-2.8363,-2.8306,-2.8523,-2.8544,-2.8563,-2.8633,-2.8661,-2.833,-2.8329,-2.8328,-2.8328,0,-2.8077,-2.8142,-2.8215,-2.8248,-2.8281,-2.8367,-2.8332,-2.8372,-2.8335,-2.8322,-2.8421,-2.8427,-2.8475,-2.8501,-2.8468,-2.8621,-2.8592,-2.8531,-2.8436,-2.8602,-2.8667,-2.8693,-2.8342,-2.8339,-2.8337,-2.8335,0,0,-2.8361,-2.8363,-2.8391,-2.8405,-2.8417,-2.8467,-2.8549,-2.8594,-2.863,-2.8655,-2.8723,-2.8802,-2.8746,-2.877,-2.8737,-2.88,-2.8961,-2.8731,-2.8731,-2.8776,-2.9132,-2.918,-2.9211,-2.8925,-2.8929,-2.8933,-2.9131,0,-2.8556,-2.8695,-2.8653,-2.8793,-2.8853,-2.8775,-2.8846,-2.8862,-2.885,-2.89,-2.8887,-2.8945,-2.8865,-2.888,-2.8938,-2.8929,-2.9032,-2.8914,-2.899,-2.8993,-2.899,-2.9245,-2.9296,-2.9482,-2.9156,-2.916,-2.9163,0,-2.8803,-2.8836,-2.8983,-2.8984,-2.9008,-2.9072,-2.9111,-2.9158,-2.9175,-2.9162,-2.9188,-2.9141,-2.9222,-2.9124,-2.9236,-2.9156,-2.9184,-2.9184,-2.919,-2.9199,-2.9091,-2.9263,-2.954,-2.957,-2.9202,-2.9199,-2.9196,0,-2.8998,-2.9079,-2.9177,-2.9191,-2.9195,-2.9242,-2.9246,-2.9256,-2.9286,-2.932,-2.9339,-2.9381,-2.9406,-2.944,-2.9407,-2.9338,-2.9524,-2.9423,-2.9518,-2.9519,-2.9563,-2.9562,-2.9853,-2.9577,-2.9577,-2.9576,-2.9575,0,-2.9222,-2.9316,-2.9264,-2.9325,-2.9427,-2.9377,-2.948,-2.9475,-2.9485,-2.9544,-2.9478,-2.9535,-2.9485,-2.9538,-2.9512,-2.9609,-2.962,-2.9614,-2.9606,-2.9621,-2.9623,-2.9642,-2.9629,-2.9583,-2.9582,-2.958,-2.9579,0,-2.9459,-2.9428,-2.953,-2.9524,-2.9525,-2.9601,-2.9596,-2.9652,-2.9634,-2.971,-2.9725,-2.9699,-2.9757,-2.9726,-2.9787,-2.9769,-2.9896,-2.9869,-2.9891,-2.9885,-2.9982,-2.9974,-3.0297,-3.0338,-3.0034,-3.0037,-3.0039,0,-2.9606,-2.9675,-2.9676,-2.971,-2.9718,-2.9774,-2.9804,-2.9757,-2.9791,-2.9813,-2.9867,-2.992,-2.9959,-3.0057,-3.0044,-3.009,-3.0066,-3.0176,-3.0073,-3.0086,-3.007,-3.0068,-3.0075,-3.0198,-3.0201,-3.0204,-3.0207,0,-2.9871,-2.9851,-2.9896,-2.9935,-2.9972,-3.0001,-3.0025,-3.0057,-3.001,-3.0051,-3.0109,-3.014,-3.0201,-3.0255,-3.0294,-3.0298,-3.0247,-3.0238,-3.0263,-3.0281,-3.0291,-3.0289,-2.995,-3.0232,-3.023,-3.0228,-3.0226,-3.0225,-3.0068,-3.0127,-3.0136,-3.0188,-3.02,-3.0223,-3.0276,-3.0264,-3.0311,-3.0357,-3.0326,-3.0395,-3.0408,-3.0455,-3.0467,-3.0521,-3.0477,-3.0512,-3.0522,-3.0532,-3.0546,-3.028,-3.0527,-3.0527,-3.0526,-3.0525,-3.0525,0,-3.0332,-3.0333,-3.0381,-3.0415,-3.0456,-3.04,-3.0422,-3.0461,-3.0522,-3.0538,-3.0578,-3.0645,-3.0696,-3.0686,-3.0732,-3.0778,-3.0755,-3.0792,-3.0789,-3.0792,-3.0582,-3.0557,-3.0809,-3.0809,-3.0809,-3.0809,-3.0809,-3.0809,-3.0474,-3.057,-3.0551,-3.0652,-3.0653,-3.0719,-3.0737,-3.0759,-3.0771,-3.0849,-3.089,-3.0882,-3.0888,-3.0934,-3.0978,-3.0974,-3.0995,-3.1042,-3.1029,-3.0834,-3.0806,-3.078,-3.0756,-3.1046,-3.1047,-3.1235,-3.1236,-3.1238]},{"header":{"parameterUnit":"m.s-1","parameterCategory":1,"la1":30.2991,"la2":30.254,"lo1":-89.0895,"lo2":-89.0444,"dy":0.0017,"dx":0.0017,"nx":28,"ny":28,"refTime":"2025-01-13T09:00:00:Z","depth":0,"parameterNumber":3,"parameterNumberName":"V-component_of_WINDS"},"data":[0,0,0,0,0,0,0,0,0,0,0,0,0,0,0,0,0,0,0,0,0,0,0,0,0,0,0,0,0,0,0,0,0,0,0,0,0,0,0,0,0,0,0,0,0,0,0,0,0,0,0,0,0,0,0,0,0,0,-4.1161,-4.1162,0,-4.1222,-4.1222,-4.1223,-4.1159,-4.1157,-4.1154,-4.1152,-4.1211,-4.1215,-4.1218,0,0,0,0,0,0,0,0,0,0,0,0,0,-4.0987,-4.099,-4.1161,-4.1162,-4.1163,-4.1222,-4.1222,-4.1223,-4.116,-4.1157,-4.1154,-4.1151,-4.121,-4.1214,-4.1219,0,0,0,0,0,0,0,0,0,0,0,0,0,-4.1056,-4.0991,-4.1161,-4.1138,-4.1137,-4.1221,-4.1222,-4.1223,-4.116,-4.1157,-4.1153,-4.1149,-4.1208,-4.1214,-4.1219,-4.1329,0,0,-4.1237,-4.124,0,0,0,0,0,0,0,0,-4.1052,-4.1063,-4.1141,-4.114,-4.1138,-4.1179,-4.1182,-4.1259,-4.1161,-4.1151,-4.1152,-4.1148,-4.1203,-4.1209,-4.1228,-4.1331,-4.1334,-4.1238,-4.1241,-4.1244,-4.1245,0,0,0,0,0,0,0,-4.1048,-4.106,-4.1185,-4.1142,-4.1141,-4.1123,-4.1129,-4.1196,-4.1197,-4.1152,-4.1147,-4.1155,-4.1202,-4.1223,-4.1229,-4.1335,-4.1237,-4.1243,-4.1246,-4.1248,-4.1528,-4.1532,0,0,0,0,0,0,-4.1046,-4.1056,-4.1183,-4.1187,-4.1086,-4.113,-4.1136,-4.117,-4.1196,-4.1197,-4.1159,-4.1152,-4.1215,-4.1223,-4.1231,-4.1359,-4.1243,-4.1249,-4.1252,-4.1524,-4.1529,-4.1533,0,0,0,0,0,0,-4.1042,-4.1058,-4.1181,-4.112,-4.1135,-4.1137,-4.1175,-4.1173,-4.1194,-4.1201,-4.1201,-4.1181,-4.1212,-4.1223,-4.1305,-4.1361,-4.1252,-4.1257,-4.152,-4.1526,-4.1531,-4.1618,0,0,0,0,0,0,-4.1038,-4.1057,-4.11,-4.1122,-4.1138,-4.1255,-4.1178,-4.1177,-4.1205,-4.1197,-4.1222,-4.1222,-4.121,-4.1296,-4.131,-4.1367,-4.1261,-4.1514,-4.1522,-4.1529,-4.161,-4.1626,-4.164,0,0,0,0,0,-4.1032,-4.1122,-4.1102,-4.1118,-4.1192,-4.1258,-4.1267,-4.1253,-4.1209,-4.1251,-4.1256,-4.1221,-4.1352,-4.1305,-4.132,-4.1379,-4.1511,-4.152,-4.1529,-4.1604,-4.1623,-4.164,0,0,0,0,0,0,-4.1106,-4.1124,-4.1103,-4.1203,-4.123,-4.1247,-4.13,-4.1274,-4.1313,-4.1304,-4.1283,-4.1289,-4.1376,-4.1385,-4.1333,-4.1485,-4.1424,-4.1437,-4.1476,-4.1495,-4.1509,-4.1505,-4.1266,0,0,0,0,0,-4.1134,-4.1187,-4.12,-4.1287,-4.1301,-4.1299,-4.1327,-4.1313,-4.134,-4.135,-4.136,-4.1386,-4.1433,-4.1464,-4.1508,-4.1611,-4.1615,-4.1659,-4.1674,-4.1686,-4.1697,-4.1751,-4.177,-4.1563,-4.1563,-4.1562,0,0,-4.1192,-4.1209,-4.1244,-4.1302,-4.1321,-4.1376,-4.1309,-4.1369,-4.1409,-4.1359,-4.1437,-4.1445,-4.1472,-4.1565,-4.1606,-4.1576,-4.1755,-4.1697,-4.1707,-4.1711,-4.1762,-4.1781,-4.1799,-4.1569,-4.1568,-4.1567,0,0,-4.1326,-4.1345,-4.1418,-4.1439,-4.1468,-4.1466,-4.1483,-4.1505,-4.1509,-4.1587,-4.155,-4.1596,-4.1677,-4.1698,-4.1719,-4.1859,-4.1828,-4.1873,-4.1951,-4.2004,-4.202,-4.2034,-4.2083,-4.2101,-4.1884,-4.1884,-4.1884,0,-4.1394,-4.1476,-4.1459,-4.1523,-4.1549,-4.1506,-4.158,-4.16,-4.1642,-4.166,-4.1626,-4.1726,-4.1741,-4.1837,-4.1871,-4.189,-4.1908,-4.187,-4.2019,-4.2033,-4.2046,-4.2093,-4.2111,-4.189,-4.1889,-4.1888,-4.1888,0,-4.1558,-4.1615,-4.1671,-4.1713,-4.1745,-4.1814,-4.1806,-4.184,-4.1823,-4.1823,-4.1902,-4.1919,-4.1964,-4.1986,-4.197,-4.2079,-4.2059,-4.2023,-4.1961,-4.2072,-4.2115,-4.2132,-4.1897,-4.1895,-4.1894,-4.1892,0,0,-4.1741,-4.1772,-4.1793,-4.1811,-4.184,-4.1883,-4.1948,-4.1993,-4.2023,-4.2052,-4.2106,-4.2175,-4.214,-4.2164,-4.215,-4.2196,-4.2304,-4.2153,-4.2153,-4.218,-4.2424,-4.2451,-4.2472,-4.2284,-4.2287,-4.229,-4.2421,0,-4.1875,-4.199,-4.1975,-4.2084,-4.2136,-4.2096,-4.2152,-4.2175,-4.2177,-4.2219,-4.222,-4.227,-4.2221,-4.2235,-4.2279,-4.2282,-4.2353,-4.2272,-4.2332,-4.2334,-4.2326,-4.2495,-4.2524,-4.2648,-4.2438,-4.2441,-4.2443,0,-4.2047,-4.2084,-4.2198,-4.2217,-4.2238,-4.229,-4.2329,-4.2371,-4.2395,-4.2393,-4.2419,-4.2396,-4.2459,-4.2397,-4.2483,-4.2428,-4.2451,-4.2456,-4.2461,-4.2465,-4.2395,-4.2503,-4.2687,-4.2705,-4.247,-4.2467,-4.2466,0,-4.2168,-4.2246,-4.2324,-4.234,-4.2365,-4.2402,-4.2414,-4.2435,-4.2462,-4.2496,-4.2513,-4.2554,-4.2576,-4.2607,-4.2594,-4.255,-4.2683,-4.2619,-4.2681,-4.2682,-4.2711,-4.2709,-4.29,-4.2727,-4.2727,-4.2727,-4.2726,0,-4.2319,-4.239,-4.2378,-4.2426,-4.2504,-4.2486,-4.2563,-4.257,-4.2588,-4.2636,-4.2603,-4.2648,-4.2629,-4.2672,-4.2662,-4.2734,-4.2745,-4.2744,-4.274,-4.2747,-4.2747,-4.2761,-4.2752,-4.2731,-4.273,-4.2729,-4.2729,0,-4.2467,-4.2462,-4.2544,-4.2561,-4.2567,-4.2624,-4.2637,-4.2681,-4.268,-4.274,-4.2753,-4.275,-4.2799,-4.279,-4.2844,-4.2837,-4.2927,-4.2913,-4.2919,-4.2916,-4.2978,-4.2972,-4.3185,-4.3211,-4.3022,-4.3024,-4.3025,0,-4.2564,-4.2618,-4.264,-4.267,-4.2684,-4.2733,-4.276,-4.2744,-4.2774,-4.2805,-4.2845,-4.2891,-4.2927,-4.3006,-4.3008,-4.3049,-4.3035,-4.3107,-4.3041,-4.3045,-4.3035,-4.3032,-4.3037,-4.312,-4.3122,-4.3124,-4.3125,0,-4.2735,-4.273,-4.2772,-4.2813,-4.2847,-4.2878,-4.2906,-4.2931,-4.2917,-4.2952,-4.3002,-4.303,-4.3085,-4.313,-4.3167,-4.3177,-4.3149,-4.3146,-4.3162,-4.3169,-4.317,-4.3169,-4.2954,-4.3141,-4.314,-4.3138,-4.3138,-4.3137,-4.286,-4.2905,-4.2928,-4.2975,-4.2994,-4.3021,-4.3063,-4.3066,-4.3108,-4.3152,-4.3139,-4.3195,-4.3216,-4.3263,-4.3278,-4.332,-4.3293,-4.3318,-4.3323,-4.333,-4.3337,-4.3164,-4.3327,-4.3327,-4.3326,-4.3326,-4.3325,0,-4.3028,-4.3041,-4.3085,-4.3124,-4.3161,-4.3132,-4.316,-4.3193,-4.3243,-4.3265,-4.3301,-4.3357,-4.3401,-4.3406,-4.3447,-4.348,-4.3468,-4.3491,-4.3488,-4.3491,-4.3359,-4.334,-4.35,-4.35,-4.35,-4.35,-4.35,-4.35,-4.3121,-4.3196,-4.3193,-4.3276,-4.3287,-4.3343,-4.3361,-4.3385,-4.3402,-4.3467,-4.3503,-4.3507,-4.3522,-4.3563,-4.3601,-4.3601,-4.3617,-4.3645,-4.3641,-4.3517,-4.35,-4.3483,-4.3466,-4.3649,-4.3649,-4.3768,-4.3769,-4.377]}]]